Location: Franzen
(48.6167°N, 15.3833°E)
Time: 13:53:51
(UTC+00:00)

Transit 2A Rocket - Pass Details

Date: 05 August 2021
Orbit: 586 x 917 km, 66.7° (Epoch: 27 September)

Event Time Altitude Azimuth Distance (km) Brightness Sun altitude
Rises 21:21:11 0° 319° (NW) 3,295 9.7 -20.7°
Reaches altitude 10° 21:23:40 10° 311° (NW) 2,412 8.5 -20.9°
Maximum altitude 21:28:46 37° 246° (WSW) 1,307 6.1 -21.3°
Enters shadow 21:30:50 28° 206° (SSW) 1,566 6.2 -21.4°
